Location: Kielce
(50.8833°N, 20.6167°E)
Time: 17:34:21
(UTC+02:00)

A-11 Canister half - All Passes

Search period start: 23 April 2021 00:00
Search period end: 03 May 2021 00:00
Orbit: 1515 x 1685 km, 47.2° (Epoch: 23 April)

Date Brightness Start Highest point End Pass type
(mag) Time Alt. Az. Time Alt. Az. Time Alt. Az.
23 Apr - 01:33:43 10° W 01:43:08 60° SSW 01:52:52 10° SE visible
23 Apr - 03:38:50 10° W 03:46:49 30° SW 03:54:59 10° SSE visible
23 Apr - 19:02:02 10° S 19:08:18 20° SE 19:14:40 10° E daylight
23 Apr - 21:02:33 10° SW 21:11:25 50° SSE 21:20:35 10° E visible
23 Apr - 23:06:17 10° WSW 23:15:42 72° S 23:25:28 10° E visible
24 Apr - 01:10:50 10° W 01:20:14 61° SSW 01:29:58 10° ESE visible
24 Apr - 03:15:51 10° W 03:23:58 31° SW 03:32:18 10° SSE visible
24 Apr - 18:39:35 10° S 18:45:31 19° SE 18:51:32 10° E daylight
24 Apr - 20:39:46 10° SW 20:48:34 48° SSE 20:57:38 10° E visible
24 Apr - 22:43:25 10° WSW 22:52:47 72° S 23:02:32 10° E visible
25 Apr - 00:47:56 10° W 00:57:20 62° SSW 01:07:03 10° ESE visible
25 Apr - 02:52:53 10° W 03:01:08 33° SW 03:09:35 10° SSE visible
25 Apr - 18:17:10 10° SSE 18:22:44 18° SE 18:28:23 10° E daylight
25 Apr - 20:17:00 10° SW 20:25:43 47° SSE 20:34:41 10° E visible
25 Apr - 22:20:32 10° WSW 22:29:53 71° S 22:39:34 10° E visible
26 Apr - 00:25:03 10° W 00:34:26 64° SSW 00:44:09 10° ESE visible
26 Apr - 02:29:56 10° W 02:38:17 34° SW 02:46:51 10° SSE visible
26 Apr - 17:54:48 10° SSE 17:59:58 16° SE 18:05:11 10° E daylight
26 Apr - 19:54:14 10° SW 20:02:52 45° SSE 20:11:44 10° E daylight
26 Apr - 21:57:40 10° WSW 22:06:58 70° S 22:16:38 10° E visible
27 Apr - 00:02:09 10° W 00:11:32 65° SSW 00:21:14 10° ESE visible
27 Apr - 02:07:00 10° W 02:15:26 36° SW 02:24:07 10° SSE visible
27 Apr - 04:16:37 10° WSW 04:18:05 10° WSW 04:19:31 10° SW visible
27 Apr - 17:32:30 10° SSE 17:37:12 15° SE 17:41:57 10° E daylight
27 Apr - 19:31:29 10° SW 19:40:01 43° SSE 19:48:46 10° E daylight
27 Apr - 21:34:48 10° WSW 21:44:04 70° S 21:53:41 10° E visible
27 Apr - 23:39:16 10° W 23:48:37 66° SSW 23:58:20 10° ESE visible
28 Apr - 01:44:04 10° W 01:52:35 37° SW 02:01:22 10° SSE visible
28 Apr - 03:52:30 10° WSW 03:55:18 11° WSW 03:58:07 10° SW visible
28 Apr - 17:10:17 10° SSE 17:14:26 14° SE 17:18:37 10° E daylight
28 Apr - 19:08:44 10° SSW 19:17:10 41° SE 19:25:49 10° E daylight
28 Apr - 21:11:56 10° WSW 21:21:11 69° S 21:30:45 10° E visible
28 Apr - 23:16:22 10° W 23:25:43 67° SSW 23:35:25 10° ESE visible
29 Apr - 01:21:08 10° W 01:29:44 39° SW 01:38:35 10° SSE visible
29 Apr - 03:28:52 10° WSW 03:32:30 13° SW 03:36:12 10° SSW visible
29 Apr - 16:48:11 10° SSE 16:51:41 13° SE 16:55:12 10° ESE daylight
29 Apr - 18:46:00 10° SSW 18:54:20 39° SE 19:02:51 10° E daylight
29 Apr - 20:49:04 10° WSW 20:58:17 68° SSE 21:07:48 10° E visible
29 Apr - 22:53:29 10° W 23:02:49 68° SSW 23:12:30 10° ESE visible
30 Apr - 00:58:12 10° W 01:06:52 40° SW 01:15:49 10° SSE visible
30 Apr - 03:05:27 10° W 03:09:44 14° SW 03:14:04 10° SSW visible
30 Apr - 16:26:18 10° SE 16:28:55 11° ESE 16:31:34 10° ESE daylight
30 Apr - 18:23:17 10° SSW 18:31:31 38° SE 18:39:54 10° E daylight
30 Apr - 20:26:13 10° WSW 20:35:24 67° SSE 20:44:52 10° E visible
30 Apr - 22:30:36 10° W 22:39:55 69° S 22:49:34 10° ESE visible
01 May - 00:35:18 10° W 00:44:01 42° SSW 00:53:00 10° SSE visible
01 May - 02:42:09 10° W 02:46:56 15° SW 02:51:49 10° SSW visible
01 May - 16:05:01 10° SE 16:06:10 10° ESE 16:07:19 10° ESE daylight
01 May - 18:00:35 10° SSW 18:08:41 36° SE 18:16:56 10° E daylight
01 May - 20:03:21 10° WSW 20:12:30 66° SSE 20:21:56 10° E daylight
01 May - 22:07:42 10° W 22:17:01 70° S 22:26:39 10° ESE visible
02 May - 00:12:22 10° W 00:21:09 44° SSW 00:30:13 10° SE visible
02 May - 02:18:55 10° W 02:24:09 16° SW 02:29:29 10° SSW visible
02 May - 17:37:53 10° SSW 17:45:52 34° SE 17:53:58 10° E daylight
02 May - 19:40:30 10° WSW 19:49:37 64° SSE 19:58:59 10° E daylight
02 May - 21:44:49 10° W 21:54:06 70° S 22:03:43 10° ESE visible
